Time,TemperatureF,DewpointF,PressureIn,WindDirection,WindDirectionDegrees,WindSpeedMPH,WindSpeedGustMPH,Humidity,HourlyPrecipIn,Conditions,Clouds,dailyrainin,SolarRadiationWatts/m^2,SoftwareType,DateUTC
2013-05-09 00:12:00,63.0,48.0,-100.00,West,261,0.0,5.0,58,0.00,,,0.00,0.000000,,2013-05-09 05:12:00,
2013-05-09 00:22:00,63.0,48.0,-100.00,West,261,0.0,5.0,58,0.00,,,0.00,0.000000,,2013-05-09 05:22:00,
2013-05-09 00:32:00,63.0,48.0,-100.00,West,261,0.0,5.0,58,0.00,,,0.00,0.000000,,2013-05-09 05:32:00,
2013-05-09 00:42:00,63.0,48.0,-100.00,West,261,0.0,5.0,58,0.00,,,0.00,0.000000,,2013-05-09 05:42:00,
2013-05-09 01:12:00,60.0,48.0,-100.00,SW,220,3.0,4.0,65,0.00,,,0.00,0.000000,,2013-05-09 06:12:00,
2013-05-09 01:21:00,60.0,48.0,-100.00,SW,220,3.0,4.0,65,0.00,,,0.00,0.000000,,2013-05-09 06:21:00,
2013-05-09 01:32:00,60.0,48.0,-100.00,SW,220,3.0,4.0,65,0.00,,,0.00,0.000000,,2013-05-09 06:32:00,
2013-05-09 01:42:00,60.0,48.0,-100.00,SW,220,3.0,4.0,65,0.00,,,0.00,0.000000,,2013-05-09 06:42:00,
2013-05-09 02:12:00,59.0,48.0,-100.00,SW,235,4.0,6.0,66,0.00,,,0.00,0.000000,,2013-05-09 07:12:00,
2013-05-09 02:21:00,59.0,48.0,-100.00,SW,235,4.0,6.0,66,0.00,,,0.00,0.000000,,2013-05-09 07:21:00,
2013-05-09 02:32:00,59.0,48.0,-100.00,SW,235,4.0,6.0,66,0.00,,,0.00,0.000000,,2013-05-09 07:32:00,
2013-05-09 02:42:00,59.0,48.0,-100.00,SW,235,4.0,6.0,66,0.00,,,0.00,0.000000,,2013-05-09 07:42:00,
2013-05-09 03:11:00,61.0,50.0,-100.00,WSW,249,4.0,5.0,66,0.00,,,0.00,0.000000,,2013-05-09 08:11:00,
2013-05-09 03:21:00,61.0,50.0,-100.00,WSW,249,4.0,5.0,66,0.00,,,0.00,0.000000,,2013-05-09 08:21:00,
2013-05-09 03:32:00,61.0,50.0,-100.00,WSW,249,4.0,5.0,66,0.00,,,0.00,0.000000,,2013-05-09 08:32:00,
2013-05-09 03:42:00,61.0,50.0,-100.00,WSW,249,4.0,5.0,66,0.00,,,0.00,0.000000,,2013-05-09 08:42:00,
2013-05-09 04:11:00,62.0,51.0,-100.00,West,281,6.0,12.0,68,0.00,,,0.00,0.000000,,2013-05-09 09:11:00,
2013-05-09 04:21:00,62.0,51.0,-100.00,West,281,6.0,12.0,68,0.00,,,0.00,0.000000,,2013-05-09 09:21:00,
2013-05-09 04:32:00,62.0,51.0,-100.00,West,281,6.0,12.0,68,0.00,,,0.00,0.000000,,2013-05-09 09:32:00,
2013-05-09 04:42:00,62.0,51.0,-100.00,West,281,6.0,12.0,68,0.00,,,0.00,0.000000,,2013-05-09 09:42:00,
2013-05-09 05:12:00,61.0,52.0,-100.00,WNW,283,4.0,9.0,71,0.00,,,0.00,0.000000,,2013-05-09 10:12:00,
2013-05-09 05:22:00,61.0,52.0,-100.00,WNW,283,4.0,9.0,71,0.00,,,0.00,0.000000,,2013-05-09 10:22:00,
2013-05-09 05:33:00,61.0,52.0,-100.00,WNW,283,4.0,9.0,71,0.00,,,0.00,0.000000,,2013-05-09 10:33:00,
2013-05-09 05:42:00,61.0,52.0,-100.00,WNW,283,4.0,9.0,71,0.00,,,0.00,0.000000,,2013-05-09 10:42:00,
2013-05-09 06:12:00,60.0,53.0,-100.00,NNW,339,2.0,6.0,78,0.00,,,0.00,0.000000,,2013-05-09 11:12:00,
2013-05-09 06:22:00,60.0,53.0,-100.00,NNW,339,2.0,6.0,78,0.00,,,0.00,0.000000,,2013-05-09 11:22:00,
2013-05-09 06:32:00,60.0,53.0,-100.00,NNW,339,2.0,6.0,78,0.00,,,0.00,0.000000,,2013-05-09 11:32:00,
2013-05-09 06:41:00,60.0,53.0,-100.00,NNW,339,2.0,6.0,78,0.00,,,0.00,0.000000,,2013-05-09 11:41:00,
2013-05-09 07:11:00,60.0,53.0,-100.00,WNW,296,4.0,7.0,77,0.00,,,0.00,15.000000,,2013-05-09 12:11:00,
2013-05-09 07:22:00,60.0,53.0,-100.00,WNW,296,4.0,7.0,77,0.00,,,0.00,15.000000,,2013-05-09 12:22:00,
2013-05-09 07:32:00,60.0,53.0,-100.00,WNW,296,4.0,7.0,77,0.00,,,0.00,15.000000,,2013-05-09 12:32:00,
2013-05-09 07:42:00,60.0,53.0,-100.00,WNW,296,4.0,7.0,77,0.00,,,0.00,15.000000,,2013-05-09 12:42:00,
2013-05-09 08:12:00,60.0,53.0,-100.00,WNW,299,5.0,7.0,79,0.00,,,0.00,38.000000,,2013-05-09 13:12:00,
2013-05-09 08:22:00,60.0,53.0,-100.00,WNW,299,5.0,7.0,79,0.00,,,0.00,38.000000,,2013-05-09 13:22:00,
2013-05-09 08:32:00,60.0,53.0,-100.00,WNW,299,5.0,7.0,79,0.00,,,0.00,38.000000,,2013-05-09 13:32:00,
2013-05-09 08:42:00,60.0,53.0,-100.00,WNW,299,5.0,7.0,79,0.00,,,0.00,38.000000,,2013-05-09 13:42:00,
2013-05-09 09:11:00,60.0,52.0,-100.00,NW,307,5.0,11.0,74,0.00,,,0.00,85.000000,,2013-05-09 14:11:00,
2013-05-09 09:21:00,60.0,52.0,-100.00,NW,307,5.0,11.0,74,0.00,,,0.00,85.000000,,2013-05-09 14:21:00,
2013-05-09 09:32:00,60.0,52.0,-100.00,NW,307,5.0,11.0,74,0.00,,,0.00,85.000000,,2013-05-09 14:32:00,
2013-05-09 09:41:00,60.0,52.0,-100.00,NW,307,5.0,11.0,74,0.00,,,0.00,85.000000,,2013-05-09 14:41:00,
2013-05-09 10:11:00,58.0,55.0,-100.00,North,358,4.0,6.0,91,0.02,,,0.02,46.000000,,2013-05-09 15:11:00,
2013-05-09 10:22:00,58.0,55.0,-100.00,North,358,4.0,6.0,91,0.02,,,0.02,46.000000,,2013-05-09 15:22:00,
2013-05-09 10:33:00,58.0,55.0,-100.00,North,358,4.0,6.0,91,0.02,,,0.02,46.000000,,2013-05-09 15:33:00,
2013-05-09 10:43:00,58.0,55.0,-100.00,North,358,4.0,6.0,91,0.02,,,0.02,46.000000,,2013-05-09 15:43:00,
2013-05-09 11:12:00,58.0,56.0,-100.00,West,280,5.0,12.0,92,0.01,,,0.03,72.000000,,2013-05-09 16:12:00,
2013-05-09 11:22:00,58.0,56.0,-100.00,West,280,5.0,12.0,92,0.01,,,0.03,72.000000,,2013-05-09 16:22:00,
2013-05-09 11:33:00,58.0,56.0,-100.00,West,280,5.0,12.0,92,0.01,,,0.03,72.000000,,2013-05-09 16:33:00,
2013-05-09 11:42:00,58.0,56.0,-100.00,West,280,5.0,12.0,92,0.01,,,0.03,72.000000,,2013-05-09 16:42:00,
2013-05-09 12:12:00,58.0,55.0,-100.00,ENE,61,5.0,10.0,91,0.00,,,0.03,77.000000,,2013-05-09 17:12:00,
2013-05-09 12:21:00,58.0,55.0,-100.00,ENE,61,5.0,10.0,91,0.00,,,0.03,77.000000,,2013-05-09 17:21:00,
2013-05-09 12:32:00,58.0,55.0,-100.00,ENE,61,5.0,10.0,91,0.00,,,0.03,77.000000,,2013-05-09 17:32:00,
2013-05-09 12:42:00,58.0,55.0,-100.00,ENE,61,5.0,10.0,91,0.00,,,0.03,77.000000,,2013-05-09 17:42:00,
2013-05-09 13:12:00,59.0,56.0,-100.00,East,92,4.0,13.0,89,0.00,,,0.03,82.000000,,2013-05-09 18:12:00,
2013-05-09 13:21:00,59.0,56.0,-100.00,East,92,4.0,13.0,89,0.00,,,0.03,82.000000,,2013-05-09 18:21:00,
2013-05-09 13:32:00,59.0,56.0,-100.00,East,92,4.0,13.0,89,0.00,,,0.03,82.000000,,2013-05-09 18:32:00,
2013-05-09 13:42:00,59.0,56.0,-100.00,East,92,4.0,13.0,89,0.00,,,0.03,82.000000,,2013-05-09 18:42:00,
2013-05-09 15:11:00,58.0,56.0,-100.00,NE,52,6.0,12.0,94,-99.99,,,0.16,125.000000,,2013-05-09 20:11:00,
2013-05-09 15:22:00,58.0,56.0,-100.00,NE,52,6.0,12.0,94,-99.99,,,0.16,125.000000,,2013-05-09 20:22:00,
2013-05-09 15:32:00,58.0,56.0,-100.00,NE,52,6.0,12.0,94,-99.99,,,0.16,125.000000,,2013-05-09 20:32:00,
2013-05-09 15:42:00,58.0,56.0,-100.00,NE,52,6.0,12.0,94,-99.99,,,0.16,125.000000,,2013-05-09 20:42:00,
2013-05-09 16:12:00,57.0,55.0,-100.00,NE,44,7.0,12.0,92,0.04,,,0.20,197.000000,,2013-05-09 21:12:00,
2013-05-09 16:22:00,57.0,55.0,-100.00,NE,44,7.0,12.0,92,0.04,,,0.20,197.000000,,2013-05-09 21:22:00,
2013-05-09 16:32:00,57.0,55.0,-100.00,NE,44,7.0,12.0,92,0.04,,,0.20,197.000000,,2013-05-09 21:32:00,
2013-05-09 16:43:00,57.0,55.0,-100.00,NE,44,7.0,12.0,92,0.04,,,0.20,197.000000,,2013-05-09 21:43:00,
2013-05-09 17:13:00,57.0,56.0,-100.00,ENE,64,7.0,13.0,95,0.05,,,0.25,118.000000,,2013-05-09 22:13:00,
2013-05-09 17:23:00,57.0,56.0,-100.00,ENE,64,7.0,13.0,95,0.05,,,0.25,118.000000,,2013-05-09 22:23:00,
2013-05-09 17:33:00,57.0,56.0,-100.00,ENE,64,7.0,13.0,95,0.05,,,0.25,118.000000,,2013-05-09 22:33:00,
2013-05-09 17:42:00,57.0,56.0,-100.00,ENE,64,7.0,13.0,95,0.05,,,0.25,118.000000,,2013-05-09 22:42:00,
2013-05-09 18:12:00,55.0,52.0,-100.00,ENE,70,9.0,21.0,91,0.02,,,0.27,36.000000,,2013-05-09 23:12:00,
2013-05-09 18:21:00,55.0,52.0,-100.00,ENE,70,9.0,21.0,91,0.02,,,0.27,36.000000,,2013-05-09 23:21:00,
2013-05-09 18:32:00,55.0,52.0,-100.00,ENE,70,9.0,21.0,91,0.02,,,0.27,36.000000,,2013-05-09 23:32:00,
2013-05-09 18:42:00,55.0,52.0,-100.00,ENE,70,9.0,21.0,91,0.02,,,0.27,36.000000,,2013-05-09 23:42:00,
2013-05-09 19:11:00,54.0,52.0,-100.00,ENE,60,7.0,15.0,94,0.03,,,0.30,18.000000,,2013-05-10 00:11:00,
2013-05-09 19:22:00,54.0,52.0,-100.00,ENE,60,7.0,15.0,94,0.03,,,0.30,18.000000,,2013-05-10 00:22:00,
2013-05-09 19:32:00,54.0,52.0,-100.00,ENE,60,7.0,15.0,94,0.03,,,0.30,18.000000,,2013-05-10 00:32:00,
2013-05-09 19:42:00,54.0,52.0,-100.00,ENE,60,7.0,15.0,94,0.03,,,0.30,18.000000,,2013-05-10 00:42:00,
2013-05-09 20:11:00,53.0,52.0,-100.00,ENE,63,10.0,19.0,95,0.07,,,-99.99,7.000000,,2013-05-10 01:11:00,
2013-05-09 20:21:00,53.0,52.0,-100.00,ENE,63,10.0,19.0,95,0.07,,,-99.99,7.000000,,2013-05-10 01:21:00,
2013-05-09 20:32:00,53.0,52.0,-100.00,ENE,63,10.0,19.0,95,0.07,,,-99.99,7.000000,,2013-05-10 01:32:00,
2013-05-09 20:42:00,53.0,52.0,-100.00,ENE,63,10.0,19.0,95,0.07,,,-99.99,7.000000,,2013-05-10 01:42:00,
2013-05-09 21:11:00,53.0,52.0,-100.00,ENE,60,7.0,15.0,97,0.10,,,0.47,0.000000,,2013-05-10 02:11:00,
2013-05-09 21:21:00,53.0,52.0,-100.00,ENE,60,7.0,15.0,97,0.10,,,0.47,0.000000,,2013-05-10 02:21:00,
2013-05-09 21:32:00,53.0,52.0,-100.00,ENE,60,7.0,15.0,97,0.10,,,0.47,0.000000,,2013-05-10 02:32:00,
2013-05-09 21:42:00,53.0,52.0,-100.00,ENE,60,7.0,15.0,97,0.10,,,0.47,0.000000,,2013-05-10 02:42:00,
2013-05-09 22:11:00,52.0,51.0,-100.00,ENE,60,10.0,17.0,95,0.11,,,0.58,0.000000,,2013-05-10 03:11:00,
2013-05-09 22:22:00,52.0,51.0,-100.00,ENE,60,10.0,17.0,95,0.11,,,0.58,0.000000,,2013-05-10 03:22:00,
2013-05-09 22:33:00,52.0,51.0,-100.00,ENE,60,10.0,17.0,95,0.11,,,0.58,0.000000,,2013-05-10 03:33:00,
2013-05-09 22:43:00,52.0,51.0,-100.00,ENE,60,10.0,17.0,95,0.11,,,0.58,0.000000,,2013-05-10 03:43:00,
2013-05-09 23:12:00,50.0,49.0,-100.00,ENE,57,9.0,23.0,95,0.05,,,0.63,0.000000,,2013-05-10 04:12:00,
2013-05-09 23:23:00,50.0,49.0,-100.00,ENE,57,9.0,23.0,95,0.05,,,0.63,0.000000,,2013-05-10 04:23:00,
2013-05-09 23:33:00,50.0,49.0,-100.00,ENE,57,9.0,23.0,95,0.05,,,0.63,0.000000,,2013-05-10 04:33:00,
2013-05-09 23:43:00,50.0,49.0,-100.00,ENE,57,9.0,23.0,95,0.05,,,0.63,0.000000,,2013-05-10 04:43:00,